Regional Weather Roundup
Issued by NWS

Home | Current Version | Previous Version | Graphics & Text | Print | Product List | Glossary On
Versions: 1 2 3 4 5 6 7 8 9 10 11 12 13 14 15 16 17 18 19 20 21 22 23 24 25 26 27 28 29 30 31 32 33 34 35 36 37 38 39 40 41 42 43 44 45 46 47 48 49 50
000
ASUS43 KMKX 212121
RWRWI

WISCONSIN REGIONAL WEATHER ROUNDUP
NATIONAL WEATHER SERVICE MILWAUKEE/SULLIVAN WI
400 PM CDT MON MAY 21 2018

NOTE: "FAIR" INDICATES FEW OR NO CLOUDS BELOW 12,000 FEET WITH NO
SIGNIFICANT WEATHER AND/OR OBSTRUCTIONS TO VISIBILITY.

WIZ001-002-006>008-014>016-023>028-212200-
NORTHWEST WISCONSIN

CITY           SKY/WX    TMP DP  RH WIND       PRES   REMARKS
SUPERIOR ARPT  CLOUDY    58  40  52 NE5       30.05F
ASHLAND        FAIR      68  41  37 N8        30.05S
HAYWARD        CLOUDY    69  23  17 SE6       30.05F
SIREN          CLOUDY    70  25  18 SE5       30.04F
CUMBERLAND     CLOUDY    66  46  48 SE10      30.05F
RICE LAKE      CLOUDY    66  46  47 E10       30.06F
CHETEK         CLOUDY    64  50  61 E8G17     30.05F
LADYSMITH      CLOUDY    66  44  45 SE8       30.08F
EAU CLAIRE     CLOUDY    61  52  72 E10       30.04F
MENOMONIE      CLOUDY    61  50  66 E9        30.05F
NEW RICHMOND   CLOUDY    66  50  55 SE10G18   30.03F
OSCEOLA        CLOUDY    70  48  45 E8        30.04F
$$

WIZ003>005-009-010-017-018-212200-
NORTH CENTRAL WISCONSIN

CITY           SKY/WX    TMP DP  RH WIND       PRES   REMARKS
MANITOWISH WTR FAIR      68  38  33 S12       30.07F
ARBOR VITAE    FAIR      67  34  29 S13       30.08F
WOODRUFF       FAIR      67  34  29 S13       30.08F
RHINELANDER    CLOUDY    62  45  53 SE12      30.11F
EAGLE RIVER    FAIR      64  33  31 S12G17    30.10S
LAND O LAKES   FAIR      71  34  24 S10G16    30.09F
PHILLIPS       CLOUDY    65  42  42 S10       30.07F
TOMAHAWK       RAIN      57  47  70 SE3       30.11F
MEDFORD        CLOUDY    55  49  82 E8        30.08F
MERRILL        DRIZZLE   55  53  92 CALM      30.11F
$$

WIZ029-030-035-036-043>047-212200-
CENTRAL WISCONSIN

CITY           SKY/WX    TMP DP  RH WIND       PRES   REMARKS
WAUSAU         LGT RAIN  55  53  93 E5        30.08F
MOSINEE        LGT RAIN  54  54 100 E7        30.10F
MARSHFIELD     LGT RAIN  55  53  93 E10       30.06F FOG
STEVENS POINT  DRIZZLE   53  53 100 E7        30.09F
WAUPACA        LGT RAIN  57  56  95 E7        30.09F
WAUTOMA        LGT RAIN  56  54  93 E9        30.07F
WISC RAPIDS    LGT RAIN  57  54  89 E7        30.07F
CAMP DOUGLAS   DRIZZLE   57  57 100 E7        30.04F
$$

WIZ011>013-019>022-031-037>040-048>050-212200-
NORTHEAST WISCONSIN

CITY           SKY/WX    TMP DP  RH WIND       PRES   REMARKS
ANTIGO         CLOUDY    54  49  83 SE10      30.12F
SHAWANO        DRIZZLE   58  53  82 CALM      30.11F
OCONTO         CLOUDY    57  48  72 SE6       30.13S
STURGEON BAY   LGT RAIN  57  48  72 SE6       30.14F
GREEN BAY      LGT RAIN  56  51  84 E9        30.12F
MANITOWOC      LGT RAIN  53  49  86 E9        30.13F
APPLETON       LGT RAIN  54  54 100 E9        30.09F
CLINTONVILLE   RAIN      55  51  86 SE3       30.10F
OSHKOSH        LGT RAIN  54  52  93 E13       30.08F FOG
$$

WIZ032>034-041-042-053>061-212200-
SOUTHWEST WISCONSIN

CITY           SKY/WX    TMP DP  RH WIND       PRES   REMARKS
LA CROSSE      CLOUDY    59  55  87 VRB6      30.03F
SPARTA         CLOUDY    55  54  95 E7        30.05F
VIROQUA        CLOUDY    57  57 100 E9        30.03F
BOSCOBEL       CLOUDY    60  58  92 NE3       30.01F
PRAIRIE DU CHI CLOUDY    59  57  93 E3        30.01F FOG
PLATTEVILLE    CLOUDY    59  59 100 E10       30.01F
$$

WIZ056-057-062-063-064-067-068-212200-
SOUTH CENTRAL WISCONSIN

CITY           SKY/WX    TMP DP  RH WIND       PRES   REMARKS
REEDSBURG      DRIZZLE   56  56 100 E5        30.04F
BARABOO/DELLS  DRIZZLE   57  55  95 E10       30.04F
LONE ROCK      LGT RAIN  60  59  96 E8        30.02F FOG
MINERAL POINT  CLOUDY    59  59 100 E8        30.01F FOG
MADISON        LGT RAIN  58  57  97 E8        30.02F FOG
MIDDLETON      CLOUDY    60  58  92 E9        30.03F
WATERTOWN      LGT RAIN  56  56 100 E12       30.04F
MONROE         CLOUDY    59  59 100 NE6       30.01F FOG
JANESVILLE     CLOUDY    63  63 100 E7        30.01F
$$

WIZ051-052-058>065-066-070>072-212200-
SOUTHEAST WISCONSIN

CITY           SKY/WX    TMP DP  RH WIND       PRES   REMARKS
MILWAUKEE      FOG       52  52 100 E7        30.06F VSB 1/4
WAUKESHA       FOG       50  50 100 NE7       30.06F VSB 3/4
MILWAUKEE/TIMM LGT RAIN  50  46  87 E5        30.08F VSB 1
RACINE         LGT RAIN  51  51 100 E9        30.05F VSB 1
BURLINGTON     DRIZZLE   57  55  95 E6        30.04S
KENOSHA        LGT RAIN  54  53  97 E10       30.04F VSB 1
FOND DU LAC    LGT RAIN  53  51  93 E10       30.08F FOG
SHEBOYGAN      RAIN      50  48  93 NE8       30.10F FOG
WEST BEND      RAIN      50  50 100 E10       30.08F
JUNEAU         LGT RAIN  54  53  97 NE10      30.07F
$$

LSZ147-162-212200-
LAKE SUPERIOR

STATION/POSITION TIME  TEMP    WIND        PRES    WAVE
                       AIR SEA DIR/SP/G            HT/PER
                 (UTC) (F)     (DEG/KT/KT) (MB)    (FT/S)
W MID LAKE BUOY  2050   40 36  360/  6/  8 1018.4F   0
DEVILS ISLAND    2100   44      40/  5/  6 1018.2F
SAXON HARBOR     2030   54     360/  3/  5 1017.3F
$$

LMZ867-665-643>646-212200-
LAKE MICHIGAN

STATION/POSITION TIME  TEMP    WIND        PRES    WAVE
                       AIR SEA DIR/SP/G            HT/PER
                 (UTC) (F)     (DEG/KT/KT) (MB)    (FT/S)
NORTHPORT PIER   2040   47                 1020.3F
KEWAUNEE LAKESHO 2100   49      20/  4/  6 1019.8
SHEBOYGAN LAKESH 2100   45      10/ 11/ 12 1019.8F
PORT WASHINGTON  2040   48      30/  5/ 10 1020.0F
ATWATER BUOY     2037   46 47   80/ 10/ 14 1017.9
MILWAUKEE LAKESH 2050   47      40/  6/  7   N/A
KENOSHA   LAKESH 2100   48                 1016.9
$$

TC  - TEMPERATURE IN CELSIUS
VSB - VISIBILITY IN STATUTE MILES
WCI - WIND CHILL INDEX
HX  - HEAT INDEX




USA.gov is the U.S. government's official web portal to all federal, state and local government web resources and services.